Flag for Germany Weather past 2 weeks in Pirmasens, Rhineland-Palatinate, Germany

Now
70 °F

Clear.


Feels Like: 72 °F
Forecast: 61 / 92 °F
Wind: No wind

Location: Ramstein

Current Time: Jul 1, 2015 at 11:24:25 PM

Latest Report: Jul 1, 2015 at 10:58 PM


Visibility: N/A

Pressure: 30.04 "Hg

Humidity: 75%

Dew point: 62 °F

Location of PirmasensLocation

Historic Weather in Pirmasens — Graph

°F

Pirmasens temperature yesterday

Maximum temperature yesterday: 85 °F (at 4:58 PM)
Minimum temperature yesterday: 59 °F (at 11:58 PM)
Average temperature yesterday: 76 °F

Past Weeks' High & Low Weather Summary

 TemperatureHumidityPressure
High92 °F (Jul 1, 3:58 PM)100% (Jun 18, 9:58 AM)30.28 "Hg (Jun 18, 9:58 AM)
Low37 °F (Jun 17, 4:58 AM)25% (Jun 30, 6:58 PM)29.73 "Hg (Jun 22, 10:58 PM)
Average62 °F68%30.09 "Hg
* Reported Jun 16 9:58 PM — Jul 1 9:58 PM, Pirmasens, Weather by CustomWeather, © 2015

Note: Actual official high and low records may vary slightly from our data, if they occured in-between our weather recording intervals... More about our weather records

Advertising

Pirmasens weather history for previous 24 hours

 ConditionsComfort  
Time TempWeatherWind HumidityBarometerVisibility
9:58 PM
Wed, Jul 1
73 °FSunny.3 mph65%30.03 "HgN/A
8:58 PM85 °FSunny.5 mph41%30.02 "HgN/A
7:58 PM90 °FSunny.2 mph31%30.01 "HgN/A
6:58 PM91 °FSunny.3 mph28%30.00 "HgN/A
5:58 PM91 °FSunny.8 mph28%30.02 "HgN/A
4:58 PM91 °FSunny.3 mph28%30.01 "HgN/A
3:58 PM92 °FSunny.8 mph26%30.03 "HgN/A
2:58 PM90 °FSunny.6 mph27%30.04 "HgN/A
1:58 PM90 °FPassing clouds.8 mph28%30.05 "HgN/A
1:03 PM90 °FPassing clouds.6 mph29%30.07 "HgN/A
12:58 PM89 °FSunny.8 mph30%30.05 "HgN/A
11:58 AM86 °FSunny.5 mph35%30.06 "HgN/A
10:58 AM83 °FSunny.5 mph38%30.08 "HgN/A
9:58 AM79 °FSunny.7 mph45%30.08 "HgN/A
8:58 AM73 °FSunny.8 mph53%30.08 "HgN/A
7:58 AM66 °FSunny.2 mph62%30.09 "HgN/A
6:58 AM59 °FSunny.No wind88%30.08 "HgN/A
5:58 AM54 °FClear.2 mph91%30.09 "HgN/A
4:58 AM57 °FClear.3 mph82%30.07 "HgN/A
3:58 AM55 °FClear.5 mph82%30.07 "HgN/A
2:58 AM56 °FClear.No wind84%30.09 "HgN/A
1:58 AM57 °FClear.No wind82%30.09 "HgN/A
12:58 AM55 °FClear.No wind88%30.09 "HgN/A
11:58 PM
Tue, Jun 30
59 °FClear.No wind82%30.10 "HgN/A
Weather by CustomWeather, © 2015

See weather overviewHow to use our weather pages